Aérodrome :
LOGIN :

S'inscrire | Disclaimer

   EN    FR    IT 

 










Légende :    VFR   VFR Marginal   IFR   IFR Intensif   IFR Très Intensif
Visi : 
Plafond : 
>= 8 km
>= 3000ft
5 à 8 km
1000 à 3000 ft
1500m à 5 km
500 à 1000 ft
800 à 1500m
200 à 500 ft
< 800m
< 200 ft
Symboles :   Orages  Brouillard  Fortes neiges  Fortes précipitations  Vent > 20 kt
SIGMETs :   Divers  Orages  Givrage  Turbulence  Onde Orograph.  Cendres Volcan.







- Altitude de l'aérodrome : 18 ft
- Code IATA : AJA
- Voir les cartes d'approche


LFKJ - Ajaccio

DERNIER METAR :
  • 190300Z AUTO 04007KT 9999 OVC024 07/04 Q1022 NOSIG

METARs EXPIRÉS :
  • 190230Z AUTO 03005KT 360V060 9999 OVC022 06/04 Q1023 NOSIG
  • 190200Z AUTO 03006KT 9999 OVC023 06/04 Q1023 NOSIG
  • 190130Z AUTO 04006KT 010V070 9999 OVC023 06/04 Q1023 NOSIG
  • 190100Z AUTO 03005KT 9999 BKN023 06/04 Q1023 NOSIG
  • 190030Z AUTO 04006KT 010V070 9999 BKN022 06/04 Q1023 NOSIG

TAF TAF LFKJ
Valide du 19 à 03h jusqu'au 20 à 03h UTC


190200Z 1903/2003 04005KT CAVOK
TEMPO 1903/1907 BKN020
BECMG 1908/1911 24006KT
BECMG 1917/1918 04005KT
ATIS : +33 4 95 23 59 85
Pas de NOTAMs connus pour ce terrain.



MET'MAP, la Météo Aéronautique d'un coup d'oeil ! - Copyright ORBIFLY Décembre 2007 - Disclaimer

ORBIFLY MET'MAP TEAM :

Programmation & Développement : Alexandra Zaïnal
Conception & Développement : Baudouin d'Aumeries
Co-Programmation & Développement : Marc-Olivier Méhu
Soutien technique & logistique : Manuel Goepfert

Contact : metmap@orbifly.com




SOURCES & CREDITS :

   NOAA